When you browse on this site, cookies collect data to enhance your experience and personalize the content and advertising you see.
Visit our Privacy Policy to learn more. By continuing to use the site, you agree to this use of cookies and data.
  • In Portugal
  • List of Countries
  • For 7 days
  • Water Temperature
  • Weather Map
  • Weather Widgets
  • user-avatar
    Login

    Hourly Weather Nakhchivan

    Today, 25 May, Monday

    Time Temperature Precipitation Wind Pressure Humidity
    00:00 +19°C° 0 mm 1 mps 686 mmHg 71%
    01:00 +18°C° 0.1 mm 1 mps 686 mmHg 72%
    02:00 +17°C° 0.1 mm 2 mps 686 mmHg 74%
    03:00 +17°C° 0 mm 2 mps 685 mmHg 75%
    04:00 +17°C° 0.2 mm 2 mps 685 mmHg 73%
    05:00 +17°C° 0.2 mm 2 mps 685 mmHg 72%
    06:00 +17°C° 0.2 mm 2 mps 686 mmHg 70%
    07:00 +18°C° 0.2 mm 2 mps 685 mmHg 65%
    08:00 +19°C° 0.2 mm 2 mps 685 mmHg 60%
    09:00 +20°C° 0 mm 2 mps 685 mmHg 55%
    10:00 +21°C° 0.3 mm 2 mps 685 mmHg 52%
    11:00 +22°C° 0.3 mm 3 mps 685 mmHg 50%
    12:00 +22°C° 0.3 mm 3 mps 685 mmHg 48%
    13:00 +23°C° 0.6 mm 4 mps 685 mmHg 45%
    14:00 +25°C° 0.6 mm 4 mps 685 mmHg 43%
    15:00 +26°C° 0.6 mm 5 mps 685 mmHg 40%
    16:00 +26°C° 0 mm 7 mps 685 mmHg 35%
    17:00 +26°C° 0 mm 8 mps 686 mmHg 29%
    18:00 +26°C° 0 mm 10 mps 686 mmHg 23%
    19:00 +23°C° 0 mm 8 mps 687 mmHg 32%
    20:00 +21°C° 0 mm 6 mps 687 mmHg 40%
    21:00 +19°C° 0 mm 3 mps 688 mmHg 49%
    22:00 +19°C° 0 mm 3 mps 688 mmHg 52%
    23:00 +18°C° 0 mm 2 mps 688 mmHg 54%

    Tomorrow, 26 May, Tuesday

    Time Temperature Precipitation Wind Pressure Humidity
    00:00 +17°C° 0 mm 2 mps 689 mmHg 57%
    01:00 +18°C° 0 mm 1 mps 689 mmHg 58%
    02:00 +16°C° 0 mm 1 mps 689 mmHg 59%
    03:00 +16°C° 0 mm 1 mps 689 mmHg 60%
    04:00 +16°C° 0 mm 1 mps 689 mmHg 58%
    05:00 +18°C° 0 mm 1 mps 689 mmHg 56%
    06:00 +18°C° 0 mm 1 mps 690 mmHg 54%
    07:00 +19°C° 0 mm 1 mps 690 mmHg 49%
    08:00 +20°C° 0 mm 1 mps 690 mmHg 45%
    09:00 +20°C° 0 mm 2 mps 690 mmHg 40%
    10:00 +21°C° 0 mm 2 mps 690 mmHg 37%
    11:00 +24°C° 0 mm 2 mps 690 mmHg 33%
    12:00 +25°C° 0 mm 2 mps 690 mmHg 29%
    13:00 +26°C° 0 mm 1 mps 690 mmHg 27%
    14:00 +27°C° 0 mm 1 mps 690 mmHg 25%
    15:00 +27°C° 0 mm 1 mps 690 mmHg 23%
    16:00 +28°C° 0 mm 1 mps 690 mmHg 23%
    17:00 +28°C° 0 mm 1 mps 690 mmHg 23%
    18:00 +28°C° 0 mm 1 mps 690 mmHg 23%
    19:00 +26°C° 0 mm 1 mps 690 mmHg 28%
    20:00 +25°C° 0 mm 1 mps 691 mmHg 33%
    21:00 +24°C° 0 mm 1 mps 691 mmHg 37%
    22:00 +23°C° 0 mm 1 mps 691 mmHg 41%
    23:00 +22°C° 0 mm 1 mps 691 mmHg 44%

    Day after tomorrow, 27 May, Wednesday

    Time Temperature Precipitation Wind Pressure Humidity
    00:00 +22°C° 0 mm 1 mps 690 mmHg 48%
    01:00 +21°C° 0 mm 1 mps 690 mmHg 49%
    02:00 +20°C° 0 mm 1 mps 690 mmHg 50%
    03:00 +20°C° 0 mm 1 mps 690 mmHg 52%
    04:00 +20°C° 0 mm 1 mps 690 mmHg 50%
    05:00 +21°C° 0 mm 1 mps 690 mmHg 49%
    06:00 +21°C° 0 mm 1 mps 691 mmHg 47%
    07:00 +23°C° 0 mm 1 mps 691 mmHg 43%
    08:00 +24°C° 0 mm 1 mps 691 mmHg 39%
    09:00 +26°C° 0 mm 1 mps 691 mmHg 34%
    10:00 +27°C° 0 mm 1 mps 691 mmHg 31%
    11:00 +28°C° 0 mm 1 mps 691 mmHg 28%
    12:00 +30°C° 0 mm 1 mps 691 mmHg 25%
    13:00 +31°C° 0 mm 1 mps 691 mmHg 23%
    14:00 +32°C° 0 mm 1 mps 691 mmHg 21%
    15:00 +34°C° 0 mm 2 mps 691 mmHg 19%
    16:00 +32°C° 0 mm 2 mps 691 mmHg 21%
    17:00 +32°C° 0 mm 2 mps 691 mmHg 22%
    18:00 +33°C° 0 mm 3 mps 691 mmHg 24%
    19:00 +30°C° 0 mm 2 mps 691 mmHg 29%
    20:00 +28°C° 0 mm 2 mps 691 mmHg 35%
    21:00 +26°C° 0 mm 2 mps 691 mmHg 41%
    22:00 +25°C° 0 mm 2 mps 690 mmHg 42%
    23:00 +25°C° 0 mm 2 mps 690 mmHg 44%

    28 May, Thursday

    Time Temperature Precipitation Wind Pressure Humidity
    00:00 +24°C° 0 mm 2 mps 690 mmHg 46%
    01:00 +23°C° 0 mm 1 mps 689 mmHg 48%
    02:00 +22°C° 0 mm 1 mps 689 mmHg 49%
    03:00 +22°C° 0 mm 1 mps 689 mmHg 50%
    04:00 +23°C° 0 mm 1 mps 689 mmHg 48%
    05:00 +23°C° 0 mm 1 mps 689 mmHg 47%
    06:00 +22°C° 0 mm 0 mps 690 mmHg 45%
    07:00 +25°C° 0 mm 1 mps 690 mmHg 40%
    08:00 +26°C° 0 mm 1 mps 690 mmHg 36%
    09:00 +28°C° 0 mm 1 mps 690 mmHg 32%
    10:00 +29°C° 0 mm 1 mps 690 mmHg 28%
    11:00 +31°C° 0 mm 1 mps 689 mmHg 25%
    12:00 +32°C° 0 mm 1 mps 689 mmHg 22%
    13:00 +33°C° 0 mm 1 mps 689 mmHg 20%
    14:00 +34°C° 0 mm 1 mps 689 mmHg 17%
    15:00 +34°C° 0 mm 1 mps 689 mmHg 15%
    16:00 +35°C° 0 mm 2 mps 689 mmHg 17%
    17:00 +35°C° 0 mm 3 mps 689 mmHg 19%
    18:00 +34°C° 0 mm 4 mps 689 mmHg 21%
    19:00 +31°C° 0.1 mm 3 mps 689 mmHg 26%
    20:00 +29°C° 0.1 mm 3 mps 689 mmHg 31%
    21:00 +27°C° 0.1 mm 2 mps 688 mmHg 36%
    22:00 +26°C° 0 mm 1 mps 688 mmHg 38%
    23:00 +26°C° 0 mm 1 mps 687 mmHg 40%

    29 May, Friday

    Time Temperature Precipitation Wind Pressure Humidity
    00:00 +23°C° 0 mm 0 mps 687 mmHg 42%
    01:00 +22°C° 0.2 mm 0 mps 686 mmHg 45%
    02:00 +22°C° 0.2 mm 0 mps 686 mmHg 47%
    03:00 +21°C° 0.2 mm 0 mps 685 mmHg 49%
    04:00 +21°C° 0.1 mm 0 mps 685 mmHg 48%
    05:00 +24°C° 0.1 mm 1 mps 685 mmHg 48%
    06:00 +24°C° 0.1 mm 1 mps 685 mmHg 48%
    07:00 +25°C° 0.1 mm 1 mps 685 mmHg 43%
    08:00 +27°C° 0.1 mm 1 mps 685 mmHg 39%
    09:00 +28°C° 0.1 mm 1 mps 685 mmHg 34%
    10:00 +31°C° 0 mm 2 mps 685 mmHg 28%
    11:00 +34°C° 0 mm 3 mps 685 mmHg 23%
    12:00 +36°C° 0 mm 5 mps 685 mmHg 17%
    13:00 +38°C° 0 mm 6 mps 685 mmHg 15%
    14:00 +38°C° 0 mm 8 mps 685 mmHg 12%
    15:00 +39°C° 0 mm 10 mps 685 mmHg 10%
    16:00 +38°C° 0 mm 9 mps 684 mmHg 12%
    17:00 +35°C° 0 mm 8 mps 684 mmHg 13%
    18:00 +34°C° 0 mm 8 mps 684 mmHg 14%
    19:00 +32°C° 0 mm 6 mps 685 mmHg 17%
    20:00 +29°C° 0 mm 4 mps 685 mmHg 20%
    21:00 +27°C° 0 mm 2 mps 685 mmHg 23%
    22:00 +27°C° 0 mm 2 mps 685 mmHg 25%
    23:00 +26°C° 0 mm 2 mps 685 mmHg 26%

    30 May, Saturday

    Time Temperature Precipitation Wind Pressure Humidity
    00:00 +25°C° 0 mm 2 mps 685 mmHg 28%
    01:00 +24°C° 0 mm 2 mps 685 mmHg 29%
    02:00 +23°C° 0 mm 2 mps 685 mmHg 31%
    03:00 +20°C° 0 mm 3 mps 685 mmHg 32%
    04:00 +20°C° 0 mm 3 mps 685 mmHg 32%
    05:00 +20°C° 0 mm 2 mps 685 mmHg 31%
    06:00 +21°C° 0 mm 2 mps 685 mmHg 31%
    07:00 +22°C° 0 mm 3 mps 686 mmHg 28%
    08:00 +24°C° 0 mm 3 mps 686 mmHg 25%
    09:00 +25°C° 0 mm 4 mps 686 mmHg 22%
    10:00 +26°C° 0 mm 4 mps 686 mmHg 21%
    11:00 +27°C° 0 mm 4 mps 686 mmHg 20%
    12:00 +29°C° 0 mm 4 mps 687 mmHg 19%
    13:00 +29°C° 0 mm 3 mps 686 mmHg 18%
    14:00 +30°C° 0 mm 3 mps 686 mmHg 18%
    15:00 +30°C° 0 mm 2 mps 686 mmHg 17%
    16:00 +30°C° 0 mm 3 mps 686 mmHg 18%
    17:00 +30°C° 0 mm 4 mps 687 mmHg 19%
    18:00 +30°C° 0 mm 4 mps 687 mmHg 19%
    19:00 +28°C° 0 mm 4 mps 687 mmHg 22%
    20:00 +27°C° 0 mm 3 mps 688 mmHg 25%
    21:00 +25°C° 0 mm 2 mps 688 mmHg 27%
    22:00 +25°C° 0 mm 2 mps 688 mmHg 31%
    23:00 +24°C° 0 mm 1 mps 688 mmHg 34%
    Show more